Tracking 30743 objects as of 20-Jun-2025
HD Live streaming from Space Station
objects crossing your sky now

SL-12 R/B(2)

Track SL-12 R/B(2) now!


NORAD ID: 14115
Int'l Code: 1982-093F
Perigee: 35,494.1 km
Apogee: 35,546.2 km
Inclination: 7.3 °
Period: 1,422.1 minutes
Semi major axis: 41891 km
RCS: 2.5512 m2 (large)
Launch date: September 16, 1982
Source: Commonwealth of Independent States (former USSR) (CIS)
Launch site: TYURATAM MISSILE AND SPACE COMPLEX (TTMTR)

Note: This is a ROCKET BODY
Your satellite tracking list
Your tracking list is empty




NASA's NSSDC Master Catalog

Two Line Element Set (TLE):
1 14115U 82093F   25170.48308624 -.00000042  00000-0  00000-0 0  9991
2 14115   7.2730 299.6205 0006223 298.2886  69.8411  1.01255656120184
Source of the keplerian elements: AFSPC